START_TIME,STEP,MOV.,AL01,t_acc.,AL02,t_acc.,E37,t_acc.,H21,t_acc.
1981-08-24 06:06:35.380 ,0,0,30.,24.0,0.,24.0,0.,24.0,0.,24.0
1981-08-24 06:06:59.380 ,6,1,26.,24.0,0.,24.0,0.,24.0,0.,24.0
1981-08-24 06:07:23.380 ,5,1,0.,24.0,1.,24.0,0.,24.0,0.,24.0
1981-08-24 06:07:47.380 ,4,1,0.,24.0,0.,24.0,0.,24.0,0.,24.0
1981-08-24 06:08:11.380 ,3,1,1.,24.0,1.,24.0,0.,24.0,0.,24.0
1981-08-24 06:08:35.380 ,2,1,0.,24.0,0.,24.0,0.,24.0,0.,24.0
1981-08-24 06:08:59.380 ,1,1,0.,24.0,0.,24.0,0.,24.0,0.,24.0
1981-08-24 06:09:23.380 ,0,1,0.,24.0,0.,24.0,0.,24.0,0.,24.0
1981-08-24 06:09:47.380 ,0,1,0.,24.0,0.,24.0,0.,24.0,0.,24.0
1981-08-24 06:10:11.380 ,1,1,0.,24.0,0.,24.0,0.,24.0,0.,24.0
1981-08-24 06:10:35.380 ,2,1,0.,24.0,0.,24.0,0.,24.0,0.,24.0
1981-08-24 06:10:59.380 ,0,0,0.,24.0,0.,24.0,0.,24.0,0.,24.0
1981-08-24 06:15:45.580 ,0,0,,0,,0,,0,,0
1981-08-24 06:15:47.380 ,0,0,0.,24.0,1.,24.0,0.,24.0,0.,24.0
1981-08-24 06:16:11.380 ,3,1,0.,24.0,0.,24.0,0.,24.0,0.,24.0
1981-08-24 06:16:35.380 ,0,0,0.,24.0,0.,24.0,0.,24.0,0.,24.0
1981-08-24 06:30:35.370 ,4,1,0.,24.0,0.,24.0,0.,24.0,0.,24.0
1981-08-24 06:30:59.370 ,5,1,0.,24.0,0.,24.0,0.,24.0,0.,24.0
1981-08-24 06:31:23.370 ,6,1,0.,24.0,0.,24.0,0.,24.0,0.,24.0
1981-08-24 06:31:47.370 ,7,1,10.,24.0,0.,24.0,0.,24.0,0.,24.0
1981-08-24 06:32:11.370 ,7,1,43.,24.0,1.,24.0,0.,24.0,0.,24.0
1981-08-24 06:32:35.370 ,7,0,31.,24.0,0.,24.0,0.,24.0,0.,24.0
1981-08-24 06:32:59.370 ,6,1,31.,24.0,0.,24.0,0.,24.0,0.,24.0
1981-08-24 06:33:23.370 ,6,0,0.,24.0,0.,24.0,0.,24.0,0.,24.0
1981-08-24 06:33:47.370 ,5,1,0.,24.0,0.,24.0,0.,24.0,0.,24.0
1981-08-24 06:34:11.370 ,5,0,0.,24.0,0.,24.0,0.,24.0,0.,24.0
1981-08-24 06:34:35.370 ,4,1,0.,24.0,0.,24.0,0.,24.0,0.,24.0
1981-08-24 06:34:59.370 ,4,0,0.,24.0,0.,24.0,0.,24.0,0.,24.0
1981-08-24 06:35:23.370 ,3,1,0.,24.0,0.,24.0,0.,24.0,0.,24.0
1981-08-24 06:35:47.370 ,3,0,0.,24.0,0.,24.0,0.,24.0,0.,24.0
1981-08-24 06:36:11.370 ,2,1,0.,24.0,0.,24.0,0.,24.0,0.,24.0
1981-08-24 06:36:35.370 ,2,0,0.,24.0,0.,24.0,0.,24.0,0.,24.0
1981-08-24 06:36:59.370 ,1,1,0.,24.0,0.,24.0,0.,24.0,0.,24.0
1981-08-24 06:37:23.370 ,1,0,0.,24.0,0.,24.0,0.,24.0,0.,24.0
1981-08-24 06:37:47.370 ,0,1,0.,24.0,0.,24.0,0.,24.0,0.,24.0
1981-08-24 06:38:11.370 ,0,0,0.,24.0,0.,24.0,0.,24.0,0.,24.0
1981-08-24 06:38:35.370 ,0,1,0.,24.0,0.,24.0,0.,24.0,0.,24.0
1981-08-24 06:38:59.370 ,0,0,0.,24.0,0.,24.0,0.,24.0,0.,24.0
1981-08-24 06:39:23.370 ,1,1,0.,24.0,0.,24.0,0.,24.0,0.,24.0
1981-08-24 06:39:47.370 ,1,0,1.,24.0,0.,24.0,0.,24.0,0.,24.0
1981-08-24 06:40:11.370 ,2,1,0.,24.0,0.,24.0,0.,24.0,0.,24.0
1981-08-24 06:40:35.370 ,2,0,0.,24.0,0.,24.0,0.,24.0,0.,24.0
1981-08-24 06:40:59.370 ,3,1,0.,24.0,0.,24.0,0.,24.0,0.,24.0
1981-08-24 06:41:23.370 ,3,0,0.,24.0,0.,24.0,0.,24.0,0.,24.0
1981-08-24 06:41:47.370 ,4,1,0.,24.0,0.,24.0,0.,24.0,0.,24.0
1981-08-24 06:42:11.370 ,0,0,0.,24.0,0.,24.0,0.,24.0,0.,24.0
1981-08-24 06:42:39.570 ,0,0,0.,24.0,0.,24.0,0.,24.0,0.,24.0
1981-08-24 06:42:59.370 ,0,0,0.,24.0,0.,24.0,0.,24.0,0.,24.0
1981-08-24 06:43:23.370 ,6,1,0.,24.0,0.,24.0,0.,24.0,0.,24.0
1981-08-24 06:43:47.370 ,6,0,0.,24.0,0.,24.0,0.,24.0,0.,24.0
1981-08-24 06:44:11.370 ,7,1,6.,24.0,0.,24.0,0.,24.0,0.,24.0
1981-08-24 06:44:35.370 ,7,0,22.,24.0,0.,24.0,0.,24.0,0.,24.0
1981-08-24 06:44:59.370 ,7,1,26.,24.0,0.,24.0,0.,24.0,0.,24.0
1981-08-24 06:45:23.370 ,6,1,15.,24.0,0.,24.0,0.,24.0,0.,24.0
1981-08-24 06:45:47.370 ,5,1,0.,24.0,0.,24.0,0.,24.0,0.,24.0
1981-08-24 06:46:11.370 ,4,1,0.,24.0,0.,24.0,0.,24.0,0.,24.0
1981-08-24 06:46:35.370 ,3,1,0.,24.0,0.,24.0,0.,24.0,0.,24.0
1981-08-24 06:46:59.370 ,2,1,0.,24.0,0.,24.0,0.,24.0,0.,24.0
1981-08-24 06:47:23.370 ,1,1,0.,24.0,0.,24.0,0.,24.0,0.,24.0
1981-08-24 06:47:47.370 ,0,1,0.,24.0,0.,24.0,0.,24.0,0.,24.0
1981-08-24 06:48:11.370 ,0,1,0.,24.0,0.,24.0,0.,24.0,0.,24.0
1981-08-24 06:48:35.370 ,1,1,0.,24.0,0.,24.0,0.,24.0,0.,24.0
1981-08-24 06:48:59.370 ,2,1,0.,24.0,0.,24.0,0.,24.0,0.,24.0
1981-08-24 06:49:23.370 ,3,1,0.,24.0,0.,24.0,0.,24.0,0.,24.0
1981-08-24 06:49:47.370 ,4,1,0.,24.0,0.,24.0,0.,24.0,0.,24.0
1981-08-24 06:50:11.370 ,5,1,0.,24.0,0.,24.0,0.,24.0,0.,24.0
1981-08-24 06:50:35.370 ,6,1,0.,24.0,0.,24.0,0.,24.0,0.,24.0
1981-08-24 06:50:59.370 ,7,1,10.,24.0,0.,24.0,0.,24.0,0.,24.0
1981-08-24 06:51:23.370 ,7,1,24.,24.0,0.,24.0,0.,24.0,0.,24.0
1981-08-24 06:51:47.370 ,7,0,29.,24.0,0.,24.0,0.,24.0,0.,24.0
1981-08-24 06:52:11.370 ,6,1,22.,24.0,0.,24.0,0.,24.0,0.,24.0
1981-08-24 06:52:35.370 ,6,0,0.,24.0,0.,24.0,0.,24.0,0.,24.0
1981-08-24 06:52:59.370 ,5,1,0.,24.0,0.,24.0,0.,24.0,0.,24.0
1981-08-24 06:53:23.370 ,5,0,0.,24.0,0.,24.0,0.,24.0,0.,24.0
1981-08-24 06:53:47.370 ,4,1,0.,24.0,0.,24.0,0.,24.0,0.,24.0
1981-08-24 06:54:11.370 ,4,0,0.,24.0,0.,24.0,0.,24.0,0.,24.0
1981-08-24 06:54:35.370 ,3,1,0.,24.0,0.,24.0,0.,24.0,0.,24.0
1981-08-24 06:54:59.370 ,3,0,1.,24.0,0.,24.0,0.,24.0,0.,24.0
1981-08-24 06:55:23.370 ,2,1,0.,24.0,0.,24.0,0.,24.0,0.,24.0
1981-08-24 06:55:47.370 ,2,0,0.,24.0,0.,24.0,0.,24.0,0.,24.0
1981-08-24 06:56:11.370 ,1,1,0.,24.0,1.,24.0,0.,24.0,0.,24.0
1981-08-24 06:56:35.370 ,1,0,0.,24.0,1.,24.0,0.,24.0,0.,24.0
1981-08-24 06:56:59.370 ,0,1,0.,24.0,0.,24.0,0.,24.0,0.,24.0
1981-08-24 06:57:23.370 ,0,0,0.,24.0,0.,24.0,0.,24.0,0.,24.0
1981-08-24 06:57:47.370 ,0,1,0.,24.0,0.,24.0,0.,24.0,0.,24.0
1981-08-24 06:58:11.370 ,0,0,0.,24.0,0.,24.0,0.,24.0,0.,24.0
1981-08-24 06:58:35.370 ,1,1,0.,24.0,0.,24.0,0.,24.0,0.,24.0
1981-08-24 06:58:59.370 ,1,0,0.,24.0,0.,24.0,0.,24.0,0.,24.0
1981-08-24 06:59:23.370 ,2,1,0.,24.0,0.,24.0,0.,24.0,0.,24.0
1981-08-24 06:59:47.370 ,2,0,0.,24.0,0.,24.0,0.,24.0,0.,24.0
1981-08-24 07:00:11.370 ,3,1,0.,24.0,0.,24.0,0.,24.0,0.,24.0
1981-08-24 07:00:35.370 ,3,0,0.,24.0,0.,24.0,0.,24.0,0.,24.0
1981-08-24 07:00:59.370 ,4,1,0.,24.0,0.,24.0,0.,24.0,0.,24.0
1981-08-24 07:01:23.370 ,4,0,0.,24.0,0.,24.0,0.,24.0,0.,24.0
1981-08-24 07:01:47.370 ,5,1,0.,24.0,0.,24.0,0.,24.0,0.,24.0
1981-08-24 07:02:11.370 ,5,0,0.,24.0,0.,24.0,0.,24.0,0.,24.0
1981-08-24 07:02:35.370 ,6,1,0.,24.0,0.,24.0,0.,24.0,0.,24.0
1981-08-24 07:02:59.370 ,6,0,0.,24.0,0.,24.0,0.,24.0,0.,24.0
1981-08-24 07:03:23.370 ,7,1,4.,24.0,0.,24.0,0.,24.0,0.,24.0
1981-08-24 07:03:47.370 ,7,0,28.,24.0,0.,24.0,0.,24.0,0.,24.0
1981-08-24 07:04:11.370 ,7,1,34.,24.0,0.,24.0,0.,24.0,0.,24.0
1981-08-24 07:04:35.370 ,6,1,22.,24.0,0.,24.0,0.,24.0,0.,24.0
1981-08-24 07:04:59.370 ,5,1,0.,24.0,0.,24.0,0.,24.0,0.,24.0
1981-08-24 07:05:23.370 ,4,1,0.,24.0,0.,24.0,0.,24.0,0.,24.0
1981-08-24 07:05:47.370 ,3,1,0.,24.0,0.,24.0,0.,24.0,0.,24.0
1981-08-24 07:06:11.370 ,2,1,0.,24.0,0.,24.0,0.,24.0,0.,24.0
1981-08-24 07:06:35.370 ,1,1,0.,24.0,0.,24.0,0.,24.0,0.,24.0
1981-08-24 07:06:59.370 ,0,1,0.,24.0,1.,24.0,0.,24.0,0.,24.0
1981-08-24 07:07:23.370 ,0,1,0.,24.0,0.,24.0,0.,24.0,0.,24.0
1981-08-24 07:07:47.370 ,1,1,0.,24.0,0.,24.0,0.,24.0,0.,24.0
1981-08-24 07:08:11.370 ,2,1,0.,24.0,0.,24.0,0.,24.0,0.,24.0
1981-08-24 07:08:35.370 ,3,1,0.,24.0,0.,24.0,0.,24.0,0.,24.0
1981-08-24 07:08:59.370 ,4,1,0.,24.0,0.,24.0,0.,24.0,0.,24.0
1981-08-24 07:09:23.370 ,5,1,0.,24.0,0.,24.0,0.,24.0,0.,24.0
1981-08-24 07:09:47.370 ,6,1,0.,24.0,0.,24.0,0.,24.0,0.,24.0
1981-08-24 07:10:11.370 ,7,1,9.,24.0,0.,24.0,0.,24.0,0.,24.0
1981-08-24 07:10:35.370 ,7,1,36.,24.0,0.,24.0,0.,24.0,0.,24.0
1981-08-24 07:10:59.370 ,0,0,31.,24.0,0.,24.0,0.,24.0,0.,24.0
1981-08-24 07:53:41.970 ,0,0,,0,,0,,0,,0
1981-08-24 07:53:51.570 ,0,0,0.,24.0,0.,24.0,0.,24.0,0.,24.0
1981-08-24 07:54:11.370 ,0,0,0.,24.0,0.,24.0,0.,24.0,0.,24.0
1981-08-24 07:54:35.370 ,0,1,0.,24.0,0.,24.0,0.,24.0,0.,24.0
1981-08-24 07:54:59.370 ,0,0,0.,24.0,0.,24.0,0.,24.0,0.,24.0
1981-08-24 07:55:23.370 ,0,1,0.,24.0,0.,24.0,0.,24.0,0.,24.0
1981-08-24 07:55:47.370 ,0,0,0.,24.0,0.,24.0,0.,24.0,0.,24.0
1981-08-24 07:56:11.370 ,1,1,0.,24.0,0.,24.0,0.,24.0,0.,24.0
1981-08-24 07:56:35.370 ,1,0,0.,24.0,0.,24.0,0.,24.0,0.,24.0
1981-08-24 07:56:59.370 ,2,1,0.,24.0,0.,24.0,0.,24.0,0.,24.0
1981-08-24 07:57:23.370 ,2,0,0.,24.0,0.,24.0,0.,24.0,0.,24.0
1981-08-24 07:57:47.370 ,3,1,0.,24.0,0.,24.0,0.,24.0,0.,24.0
1981-08-24 07:58:11.370 ,3,0,0.,24.0,0.,24.0,0.,24.0,0.,24.0
1981-08-24 07:58:35.370 ,4,1,0.,24.0,0.,24.0,0.,24.0,0.,24.0
1981-08-24 07:58:59.370 ,4,0,0.,24.0,0.,24.0,0.,24.0,0.,24.0
1981-08-24 07:59:23.370 ,5,1,0.,24.0,0.,24.0,0.,24.0,0.,24.0
1981-08-24 07:59:47.370 ,5,0,0.,24.0,0.,24.0,0.,24.0,0.,24.0
1981-08-24 08:00:11.370 ,6,1,0.,24.0,0.,24.0,0.,24.0,0.,24.0
1981-08-24 08:00:35.370 ,6,0,0.,24.0,0.,24.0,0.,24.0,0.,24.0
1981-08-24 08:00:59.370 ,7,1,6.,24.0,0.,24.0,0.,24.0,0.,24.0
1981-08-24 08:01:23.370 ,7,0,25.,24.0,0.,24.0,0.,24.0,0.,24.0
1981-08-24 08:01:47.370 ,7,1,25.,24.0,0.,24.0,0.,24.0,0.,24.0
1981-08-24 08:02:11.370 ,6,1,28.,24.0,0.,24.0,0.,24.0,0.,24.0
1981-08-24 08:02:35.370 ,5,1,0.,24.0,0.,24.0,0.,24.0,0.,24.0
1981-08-24 08:02:59.370 ,4,1,0.,24.0,1.,24.0,0.,24.0,0.,24.0
1981-08-24 08:03:23.370 ,3,1,0.,24.0,0.,24.0,0.,24.0,0.,24.0
1981-08-24 08:03:47.370 ,2,1,0.,24.0,0.,24.0,0.,24.0,0.,24.0
1981-08-24 08:04:59.370 ,0,0,0.,24.0,0.,24.0,0.,24.0,0.,24.0
1981-08-24 08:05:23.370 ,1,1,0.,24.0,0.,24.0,0.,24.0,0.,24.0
1981-08-24 08:05:47.370 ,2,1,0.,24.0,0.,24.0,0.,24.0,0.,24.0
1981-08-24 08:06:11.370 ,3,1,0.,24.0,0.,24.0,0.,24.0,0.,24.0
1981-08-24 08:06:35.370 ,4,1,0.,24.0,0.,24.0,0.,24.0,0.,24.0
1981-08-24 08:06:59.370 ,5,1,0.,24.0,0.,24.0,0.,24.0,0.,24.0
1981-08-24 08:07:23.370 ,6,1,0.,24.0,0.,24.0,0.,24.0,0.,24.0
1981-08-24 08:07:47.370 ,7,1,7.,24.0,0.,24.0,0.,24.0,0.,24.0
1981-08-24 08:08:11.370 ,7,1,30.,24.0,0.,24.0,0.,24.0,0.,24.0
1981-08-24 08:08:35.370 ,7,0,34.,24.0,0.,24.0,0.,24.0,0.,24.0
1981-08-24 08:08:59.370 ,6,1,24.,24.0,0.,24.0,0.,24.0,0.,24.0
1981-08-24 08:09:23.370 ,6,0,0.,24.0,0.,24.0,0.,24.0,0.,24.0
1981-08-24 08:09:47.370 ,5,1,0.,24.0,0.,24.0,0.,24.0,0.,24.0
1981-08-24 08:10:11.370 ,5,0,0.,24.0,0.,24.0,0.,24.0,0.,24.0
1981-08-24 08:10:35.370 ,4,1,0.,24.0,0.,24.0,0.,24.0,0.,24.0
1981-08-24 08:10:59.370 ,4,0,0.,24.0,0.,24.0,0.,24.0,0.,24.0
1981-08-24 08:11:23.370 ,3,1,0.,24.0,0.,24.0,0.,24.0,0.,24.0
1981-08-24 08:11:47.370 ,0,0,0.,24.0,0.,24.0,0.,24.0,0.,24.0
1981-08-24 08:12:04.770 ,0,0,,0,,0,,0,,0
1981-08-24 08:12:11.370 ,2,1,0.,24.0,0.,24.0,0.,24.0,0.,24.0
1981-08-24 08:12:35.370 ,2,0,0.,24.0,0.,24.0,0.,24.0,0.,24.0
1981-08-24 08:12:59.370 ,1,1,0.,24.0,0.,24.0,0.,24.0,0.,24.0
1981-08-24 08:13:23.370 ,1,0,0.,24.0,0.,24.0,0.,24.0,0.,24.0
1981-08-24 08:13:47.370 ,0,1,0.,24.0,0.,24.0,0.,24.0,0.,24.0
1981-08-24 08:14:11.370 ,0,0,0.,24.0,0.,24.0,0.,24.0,0.,24.0
1981-08-24 08:14:35.370 ,0,1,0.,24.0,0.,24.0,0.,24.0,0.,24.0
1981-08-24 08:14:59.370 ,0,0,0.,24.0,0.,24.0,0.,24.0,0.,24.0
1981-08-24 08:15:23.370 ,1,1,0.,24.0,0.,24.0,0.,24.0,0.,24.0
1981-08-24 08:15:47.370 ,1,0,0.,24.0,0.,24.0,0.,24.0,0.,24.0
1981-08-24 08:16:11.370 ,2,1,0.,24.0,0.,24.0,0.,24.0,0.,24.0
1981-08-24 08:16:35.370 ,2,0,0.,24.0,0.,24.0,0.,24.0,0.,24.0
1981-08-24 08:16:59.370 ,3,1,0.,24.0,0.,24.0,0.,24.0,0.,24.0
1981-08-24 08:17:23.370 ,3,0,0.,24.0,0.,24.0,0.,24.0,0.,24.0
1981-08-24 08:17:47.370 ,4,1,0.,24.0,0.,24.0,0.,24.0,0.,24.0
1981-08-24 08:18:11.370 ,4,0,0.,24.0,0.,24.0,0.,24.0,0.,24.0
1981-08-24 08:18:35.370 ,5,1,0.,24.0,0.,24.0,0.,24.0,0.,24.0
1981-08-24 08:18:59.370 ,5,0,0.,24.0,0.,24.0,0.,24.0,0.,24.0
1981-08-24 08:19:23.370 ,6,1,0.,24.0,0.,24.0,0.,24.0,0.,24.0
1981-08-24 08:19:47.370 ,6,0,0.,24.0,0.,24.0,0.,24.0,0.,24.0
1981-08-24 08:20:11.370 ,7,1,6.,24.0,0.,24.0,0.,24.0,0.,24.0
1981-08-24 08:20:35.370 ,7,0,33.,24.0,0.,24.0,0.,24.0,0.,24.0
1981-08-24 08:20:59.370 ,7,1,21.,24.0,0.,24.0,0.,24.0,0.,24.0
1981-08-24 08:21:23.370 ,6,1,25.,24.0,0.,24.0,0.,24.0,0.,24.0
1981-08-24 08:21:47.370 ,5,1,0.,24.0,0.,24.0,0.,24.0,0.,24.0
1981-08-24 08:22:11.370 ,4,1,0.,24.0,0.,24.0,0.,24.0,0.,24.0
1981-08-24 08:22:35.370 ,3,1,0.,24.0,0.,24.0,0.,24.0,0.,24.0
1981-08-24 08:22:59.370 ,2,1,0.,24.0,0.,24.0,0.,24.0,0.,24.0
1981-08-24 08:23:23.370 ,1,1,0.,24.0,0.,24.0,0.,24.0,0.,24.0
1981-08-24 08:23:47.370 ,0,1,0.,24.0,0.,24.0,0.,24.0,0.,24.0
1981-08-24 08:24:11.370 ,0,1,0.,24.0,0.,24.0,0.,24.0,0.,24.0
1981-08-24 08:24:35.370 ,1,1,0.,24.0,0.,24.0,0.,24.0,0.,24.0
1981-08-24 08:24:59.370 ,2,1,0.,24.0,0.,24.0,0.,24.0,0.,24.0
1981-08-24 08:25:23.370 ,3,1,0.,24.0,0.,24.0,0.,24.0,0.,24.0
1981-08-24 08:25:47.370 ,4,1,0.,24.0,0.,24.0,0.,24.0,0.,24.0
1981-08-24 08:26:11.370 ,5,1,0.,24.0,0.,24.0,0.,24.0,0.,24.0
1981-08-24 08:26:35.370 ,6,1,0.,24.0,0.,24.0,0.,24.0,0.,24.0
1981-08-24 08:26:59.370 ,7,1,5.,24.0,0.,24.0,0.,24.0,0.,24.0
1981-08-24 08:27:23.370 ,7,1,29.,24.0,0.,24.0,0.,24.0,0.,24.0
1981-08-24 08:27:47.370 ,7,0,26.,24.0,0.,24.0,0.,24.0,0.,24.0
1981-08-24 08:28:11.370 ,6,1,22.,24.0,0.,24.0,0.,24.0,0.,24.0
1981-08-24 08:28:35.370 ,6,0,0.,24.0,0.,24.0,0.,24.0,0.,24.0
1981-08-24 08:28:59.370 ,5,1,0.,24.0,0.,24.0,0.,24.0,0.,24.0
1981-08-24 08:29:23.370 ,5,0,0.,24.0,0.,24.0,0.,24.0,0.,24.0
1981-08-24 08:29:47.370 ,4,1,0.,24.0,0.,24.0,0.,24.0,0.,24.0
1981-08-24 08:30:11.370 ,4,0,0.,24.0,0.,24.0,0.,24.0,0.,24.0
1981-08-24 08:30:35.370 ,3,1,0.,24.0,0.,24.0,0.,24.0,0.,24.0
1981-08-24 08:30:59.370 ,3,0,0.,24.0,0.,24.0,0.,24.0,0.,24.0
1981-08-24 08:31:23.370 ,0,0,0.,24.0,0.,24.0,0.,24.0,0.,24.0
1981-08-24 08:31:47.370 ,0,0,0.,24.0,0.,24.0,0.,24.0,0.,24.0
1981-08-24 08:32:11.370 ,1,1,0.,24.0,0.,24.0,0.,24.0,0.,24.0
1981-08-24 08:32:35.370 ,0,0,0.,24.0,0.,24.0,0.,24.0,0.,24.0
1981-08-24 08:33:01.170 ,0,1,0.,24.0,0.,24.0,0.,24.0,0.,24.0
1981-08-24 08:33:23.370 ,0,0,0.,24.0,0.,24.0,0.,24.0,0.,24.0
1981-08-24 08:33:47.370 ,0,1,0.,24.0,0.,24.0,0.,24.0,0.,24.0
1981-08-24 08:34:11.370 ,0,0,0.,24.0,0.,24.0,0.,24.0,0.,24.0
1981-08-24 08:34:35.370 ,1,1,0.,24.0,0.,24.0,0.,24.0,0.,24.0
1981-08-24 08:34:59.370 ,0,0,0.,24.0,0.,24.0,0.,24.0,0.,24.0
1981-08-24 08:35:25.770 ,2,1,0.,24.0,0.,24.0,0.,24.0,0.,24.0
1981-08-24 08:35:47.370 ,2,0,1.,24.0,0.,24.0,0.,24.0,0.,24.0
1981-08-24 08:36:11.370 ,3,1,0.,24.0,0.,24.0,0.,24.0,0.,24.0
1981-08-24 08:36:35.370 ,3,0,0.,24.0,0.,24.0,0.,24.0,0.,24.0
1981-08-24 08:36:59.370 ,4,1,0.,24.0,0.,24.0,0.,24.0,0.,24.0
1981-08-24 08:37:23.370 ,4,0,0.,24.0,0.,24.0,0.,24.0,0.,24.0
1981-08-24 08:37:47.370 ,5,1,0.,24.0,0.,24.0,0.,24.0,0.,24.0
1981-08-24 08:38:11.370 ,5,0,,0,,0,,0,,0
1981-08-24 08:38:35.370 ,6,1,0.,24.0,0.,24.0,0.,24.0,0.,24.0
1981-08-24 08:38:59.370 ,6,0,0.,24.0,0.,24.0,0.,24.0,0.,24.0
1981-08-24 08:39:23.370 ,7,1,4.,24.0,0.,24.0,0.,24.0,0.,24.0
1981-08-24 08:39:47.370 ,0,0,29.,24.0,0.,24.0,0.,24.0,0.,24.0
1981-08-24 08:46:44.370 ,0,0,39.,24.0,0.,24.0,0.,24.0,0.,24.0
1981-08-24 08:46:59.370 ,0,0,,0,,0,,0,,0
1981-08-24 08:47:23.370 ,6,1,27.,24.0,0.,24.0,0.,24.0,0.,24.0
1981-08-24 08:47:47.370 ,6,0,0.,24.0,0.,24.0,0.,24.0,0.,24.0
1981-08-24 08:48:11.370 ,5,1,0.,24.0,0.,24.0,0.,24.0,0.,24.0
1981-08-24 08:48:35.370 ,5,0,0.,24.0,0.,24.0,0.,24.0,0.,24.0
1981-08-24 08:48:59.370 ,4,1,0.,24.0,0.,24.0,0.,24.0,0.,24.0
1981-08-24 08:49:23.370 ,4,0,1.,24.0,0.,24.0,0.,24.0,0.,24.0
1981-08-24 08:49:47.370 ,3,1,0.,24.0,0.,24.0,0.,24.0,0.,24.0
1981-08-24 08:50:11.370 ,3,0,0.,24.0,0.,24.0,0.,24.0,0.,24.0
1981-08-24 08:50:35.360 ,2,1,0.,24.0,1.,24.0,0.,24.0,0.,24.0
1981-08-24 08:50:59.360 ,2,0,1.,24.0,0.,24.0,0.,24.0,0.,24.0
1981-08-24 08:51:23.360 ,1,1,0.,24.0,0.,24.0,0.,24.0,0.,24.0
1981-08-24 08:51:47.360 ,1,0,0.,24.0,0.,24.0,0.,24.0,0.,24.0
1981-08-24 08:52:11.360 ,0,1,0.,24.0,0.,24.0,0.,24.0,0.,24.0
1981-08-24 08:52:35.360 ,0,0,0.,24.0,0.,24.0,0.,24.0,0.,24.0
1981-08-24 08:52:59.360 ,0,1,0.,24.0,0.,24.0,0.,24.0,0.,24.0
1981-08-24 08:53:23.360 ,0,0,0.,24.0,0.,24.0,0.,24.0,0.,24.0
1981-08-24 08:53:47.360 ,1,1,0.,24.0,0.,24.0,0.,24.0,0.,24.0
1981-08-24 08:54:11.360 ,1,0,0.,24.0,0.,24.0,0.,24.0,0.,24.0
1981-08-24 08:54:35.360 ,2,1,0.,24.0,0.,24.0,0.,24.0,0.,24.0
1981-08-24 08:54:59.360 ,2,0,0.,24.0,0.,24.0,0.,24.0,0.,24.0
1981-08-24 08:55:23.360 ,3,1,0.,24.0,0.,24.0,0.,24.0,0.,24.0
1981-08-24 08:55:47.360 ,3,0,0.,24.0,0.,24.0,0.,24.0,0.,24.0
1981-08-24 08:56:11.360 ,4,1,0.,24.0,0.,24.0,0.,24.0,0.,24.0
1981-08-24 08:56:35.360 ,0,0,,0,,0,,0,,0
